Flag for Germany Weather past 2 weeks in Emsdetten, North Rhine-Westphalia, Germany

Now
43 °F

Scattered clouds.


Feels Like: 36 °F
Forecast: 40 / 48 °F
Wind: 13 mph from South

Location: Muenster / Osnabrueck

Current Time: Feb 28, 2015 at 1:31:42 PM

Latest Report: Feb 28, 2015 at 12:50 PM


Visibility: N/A

Pressure: 30.04 "Hg

Humidity: 61%

Dew point: 30 °F

Location of EmsdettenLocation

Historic Weather in Emsdetten — Graph

°F

Emsdetten temperature yesterday

Maximum temperature yesterday: 45 °F (at 1:20 PM)
Minimum temperature yesterday: 32 °F (at 11:20 PM)
Average temperature yesterday: 41 °F

Past Weeks' High & Low Weather Summary

 TemperatureHumidityPressure
High52 °F (Feb 14, 2:50 PM)100% (Feb 15, 1:50 AM)30.74 "Hg (Feb 15, 1:50 AM)
Low27 °F (Feb 17, 1:50 AM)61% (Feb 16, 5:20 PM)29.30 "Hg (Feb 21, 6:20 AM)
Average38 °F86%29.95 "Hg
* Reported Feb 13 12:20 PM — Feb 28 12:20 PM, Emsdetten, Weather by CustomWeather, © 2015

Note: Actual official high and low records may vary slightly from our data, if they occured in-between our weather recording intervals... More about our weather records

Advertising

Emsdetten weather history for previous 24 hours

 ConditionsComfort  
Time TempWeatherWind HumidityBarometerVisibility
12:20 PM
Sat, Feb 28
43 °FPartly sunny.14 mph61%30.07 "HgN/A
11:50 AM43 °FPartly sunny.13 mph66%30.07 "HgN/A
11:20 AM41 °FPartly sunny.9 mph70%30.07 "HgN/A
10:50 AM39 °FPartly sunny.9 mph75%30.09 "HgN/A
10:20 AM37 °FSunny.10 mph87%30.09 "Hg10 mi
9:50 AM37 °FClear.8 mph87%30.09 "Hg6 mi
9:20 AM34 °FPartly sunny.7 mph93%30.12 "Hg5 mi
8:50 AM34 °FPartly sunny.7 mph93%30.12 "Hg4 mi
8:20 AM32 °FIce fog.5 mph100%30.12 "Hg3 mi
7:50 AM30 °FIce fog.6 mph100%30.12 "Hg3 mi
7:20 AM30 °FIce fog.5 mph100%30.12 "Hg3 mi
6:50 AM30 °FIce fog.5 mph100%30.09 "Hg3 mi
6:20 AM30 °FIce fog.5 mph100%30.09 "Hg3 mi
5:50 AM28 °FFog.3 mph100%30.09 "Hg4 mi
5:20 AM28 °FFog.5 mph100%30.12 "Hg6 mi
4:20 AM28 °FFog.1 mph100%30.12 "HgN/A
3:50 AM28 °FChilly.2 mph100%30.12 "HgN/A
3:20 AM30 °FFog.3 mph100%30.12 "HgN/A
2:50 AM30 °FClear.2 mph100%30.12 "Hg10 mi
2:20 AM30 °FPassing clouds.2 mph100%30.12 "HgN/A
1:50 AM32 °FFog.1 mph100%30.12 "HgN/A
1:20 AM30 °FFog.1 mph100%30.12 "HgN/A
12:50 AM32 °FFog.3 mph100%30.12 "HgN/A
12:20 AM32 °FClear.3 mph93%30.12 "Hg10 mi
11:50 PM
Fri, Feb 27
32 °FClear.2 mph93%30.12 "Hg10 mi
11:20 PM32 °FClear.5 mph93%30.12 "Hg10 mi
10:50 PM34 °FClear.3 mph87%30.12 "Hg10 mi
10:20 PM34 °FClear.3 mph87%30.12 "Hg10 mi
9:50 PM36 °FPassing clouds.5 mph87%30.12 "HgN/A
9:20 PM37 °FPassing clouds.6 mph81%30.09 "HgN/A
8:50 PM37 °FPassing clouds.5 mph81%30.09 "HgN/A
8:20 PM39 °FPassing clouds.7 mph75%30.09 "HgN/A
7:50 PM36 °FPassing clouds.3 mph87%30.09 "HgN/A
7:20 PM36 °FPassing clouds.2 mph81%30.07 "HgN/A
6:50 PM39 °FPassing clouds.2 mph70%30.07 "HgN/A
6:20 PM41 °FClear.5 mph70%30.04 "Hg10 mi
5:50 PM41 °FScattered clouds.6 mph66%30.04 "HgN/A
5:20 PM45 °FScattered clouds.8 mph61%30.04 "HgN/A
4:50 PM45 °FBroken clouds.8 mph66%30.01 "HgN/A
4:20 PM45 °FScattered clouds.8 mph66%30.01 "HgN/A
3:50 PM45 °FScattered showers. Broken clouds.8 mph66%30.01 "HgN/A
3:20 PM45 °FScattered showers. Broken clouds.13 mph66%29.98 "HgN/A
2:50 PM45 °FBroken clouds.13 mph71%29.98 "HgN/A
2:20 PM45 °FBroken clouds.13 mph71%29.98 "HgN/A
1:50 PM45 °FBroken clouds.9 mph76%29.95 "HgN/A
1:20 PM45 °FBroken clouds.12 mph76%29.95 "HgN/A
Weather by CustomWeather, © 2015

See weather overviewHow to use our weather pages